"Pseudo-MPEC" for P21Fxjw

Created 2023 Jun 7 12:22:07 UT using Find_Orb

Click here for an explanation of pseudo-MPECs

 
 Astrometry: 
     P21Fxjw* C2023 05 18FLnQeCANcGV)2@e:6/ySop2Va;KWkL)9Wo9jA=7w!$=f-^M-7wW#F52
     P21Fxjw  C2023 05 18S?XPd*3Astrometry#b\pL74dh5h_redacted;U`m:hclickT+eeF52
     P21Fxjw  C2023 05 18c]\v3F[G#w)MmV't,herepEL8@jFK/14Mop$\p9]Mjg]wr?KX5A$F52
     P21Fxjw  C2023 05 18;wp[B=-Q(uYwF]4PqD@for8xW5qP:)f[-[3$=UexplanationuJ,F52

Station data:
(F52) Pan-STARRS 2, Haleakala  (N20.707382 W156.255910)  US/Hawaii.
   Observers J. Bulger, T. Dukes, T. Lowe, A. Schultz, M. Willman. Measurers
   K. Chambers, S. Chastel, T. de Boer, L. Denneau, J. Fairlamb, H.
   Flewelling, M. Huber, C.-C. Lin, E. Magnier, Y. Ramanjooloo, R. Wainscoat,
   R. Weryk. 1.8-m Ritchey-Chrétien + CCD.

Orbital elements:  P21Fxjw
   Perihelion 2023 Jun 9.39020 +/- 42.8 TT =  9:21:53 (JD 2460104.89020)
Epoch 2023 May 18.0 TT = JDT 2460082.5   Earth MOID: 0.2301      AutoNEOCP
M 353.19018069 +/- 16               (J2000 ecliptic)
n   0.30414285 +/- 0.25             Peri.  357.34068 +/- 70
a   2.18986646 +/- 1.2              Node   258.19660 +/- 50
e   0.4315001 +/- 0.247             Incl.    3.91456 +/- 1.9
P   3.24                   H 23.34  G  0.15   U 11.8  SR
q 1.24493886 +/- 0.262    Q 3.13479407 +/- 61.6
From 4 observations 2023 May 18 (44.0 min); mean residual 0".07
Residuals in arcseconds: 
230518 F52  .03-  .08+    230518 F52  .06+  .10-    
230518 F52  .02+  .08-    230518 F52  .04-  .09+    

Ephemerides (geocentric):
Date (UTC) HH   RA             Dec           delta  r     elong  mag " sig PA
---- --------  ------------   ------------  ------ ------ -----  --- --------
2023 06 07 12  16 07 35.306   -22 30 53.43  .23452 1.2451 167.9 21.4  56d 159
2023 06 07 13  16 07 39.850   -22 30 18.46  .23452 1.2451 167.9 21.4  56d 159
2023 06 07 14  16 07 44.396   -22 29 43.48  .23452 1.2451 167.9 21.4  56d 159
2023 06 07 15  16 07 48.944   -22 29 08.50  .23453 1.2451 167.8 21.4  56d 159
2023 06 07 16  16 07 53.493   -22 28 33.52  .23453 1.2451 167.8 21.4  56d 159
2023 06 07 17  16 07 58.045   -22 27 58.53  .23454 1.2451 167.8 21.4  56d 159
2023 06 07 18  16 08 02.599   -22 27 23.54  .23454 1.2450 167.8 21.4  56d 159
2023 06 07 19  16 08 07.155   -22 26 48.54  .23455 1.2450 167.8 21.4  56d 159
2023 06 07 20  16 08 11.713   -22 26 13.54  .23455 1.2450 167.7 21.4  56d 159
2023 06 07 21  16 08 16.274   -22 25 38.53  .23456 1.2450 167.7 21.4  56d 159
2023 06 07 22  16 08 20.836   -22 25 03.52  .23456 1.2450 167.7 21.4  56d 159
2023 06 07 23  16 08 25.400   -22 24 28.51  .23457 1.2450 167.7 21.4  56d 159
2023 06 08 00  16 08 29.966   -22 23 53.49  .23457 1.2450 167.6 21.4  56d 159
2023 06 08 01  16 08 34.535   -22 23 18.47  .23458 1.2450 167.6 21.4  57d 159
2023 06 08 02  16 08 39.105   -22 22 43.44  .23459 1.2450 167.6 21.4  57d 159
2023 06 08 03  16 08 43.678   -22 22 08.42  .23459 1.2450 167.6 21.4  57d 159
2023 06 08 04  16 08 48.252   -22 21 33.38  .23460 1.2450 167.5 21.4  57d 159
2023 06 08 05  16 08 52.829   -22 20 58.35  .23461 1.2450 167.5 21.4  57d 159
2023 06 08 06  16 08 57.407   -22 20 23.31  .23461 1.2450 167.5 21.4  57d 159
2023 06 08 07  16 09 01.988   -22 19 48.27  .23462 1.2450 167.5 21.4  57d 159
2023 06 08 08  16 09 06.570   -22 19 13.23  .23463 1.2450 167.5 21.4  57d 159
2023 06 08 09  16 09 11.155   -22 18 38.18  .23464 1.2450 167.4 21.4  57d 159
2023 06 08 10  16 09 15.741   -22 18 03.13  .23464 1.2450 167.4 21.4  57d 159
2023 06 08 11  16 09 20.330   -22 17 28.08  .23465 1.2450 167.4 21.4  57d 159
2023 06 08 12  16 09 24.921   -22 16 53.02  .23466 1.2450 167.4 21.4  57d 159
2023 06 08 13  16 09 29.513   -22 16 17.96  .23467 1.2450 167.3 21.4  57d 159
2023 06 08 14  16 09 34.108   -22 15 42.90  .23468 1.2450 167.3 21.4  57d 159
2023 06 08 15  16 09 38.705   -22 15 07.84  .23469 1.2450 167.3 21.4  57d 159
2023 06 08 16  16 09 43.303   -22 14 32.78  .23469 1.2450 167.3 21.4  57d 159
2023 06 08 17  16 09 47.904   -22 13 57.71  .23470 1.2450 167.3 21.4  57d 159
2023 06 08 18  16 09 52.507   -22 13 22.64  .23471 1.2450 167.2 21.4  57d 159
2023 06 08 19  16 09 57.111   -22 12 47.57  .23472 1.2450 167.2 21.4  57d 159
2023 06 08 20  16 10 01.718   -22 12 12.50  .23473 1.2450 167.2 21.4  58d 159
2023 06 08 21  16 10 06.326   -22 11 37.43  .23474 1.2449 167.2 21.4  58d 159
2023 06 08 22  16 10 10.937   -22 11 02.35  .23475 1.2449 167.1 21.4  58d 159
2023 06 08 23  16 10 15.549   -22 10 27.28  .23476 1.2449 167.1 21.4  58d 159
2023 06 09 00  16 10 20.164   -22 09 52.20  .23477 1.2449 167.1 21.4  58d 159
2023 06 09 01  16 10 24.780   -22 09 17.12  .23478 1.2449 167.1 21.4  58d 159
2023 06 09 02  16 10 29.399   -22 08 42.04  .23479 1.2449 167.0 21.4  58d 159
2023 06 09 03  16 10 34.019   -22 08 06.96  .23481 1.2449 167.0 21.4  58d 159
2023 06 09 04  16 10 38.642   -22 07 31.88  .23482 1.2449 167.0 21.4  58d 159
2023 06 09 05  16 10 43.266   -22 06 56.80  .23483 1.2449 167.0 21.4  58d 159
2023 06 09 06  16 10 47.892   -22 06 21.71  .23484 1.2449 167.0 21.4  58d 159
2023 06 09 07  16 10 52.520   -22 05 46.63  .23485 1.2449 166.9 21.4  58d 159
2023 06 09 08  16 10 57.151   -22 05 11.54  .23486 1.2449 166.9 21.4  58d 159
2023 06 09 09  16 11 01.783   -22 04 36.46  .23488 1.2449 166.9 21.4  58d 159
2023 06 09 10  16 11 06.417   -22 04 01.38  .23489 1.2449 166.9 21.4  58d 159
2023 06 09 11  16 11 11.053   -22 03 26.29  .23490 1.2449 166.8 21.4  58d 159